Lebanon, NH

2:42 PM EDT on April 22, 2018 (GMT -0400)
Lebanon Municipal

Weather History for KLEB - April, 2014

Change the Weather History Date:

Monday, April 21, 2014

  Actual Average Record
Temperature  
Mean Temperature 54 °F -  
Max Temperature 75 °F 59 °F 86 °F (1987)
Min Temperature 34 °F 35 °F 21 °F (1928)
Degree Days  
Heating Degree Days 10    
Growing Degree Days 4 (Base 50)    
Moisture  
Dew Point 26 °F    
Average Humidity 41    
Maximum Humidity 73    
Minimum Humidity 10    
Precipitation  
Precipitation 0.00 in - - ()
Sea Level Pressure  
Sea Level Pressure 30.00 in    
Wind  
Wind Speed 5 mph (SSW)    
Max Wind Speed 13 mph    
Max Gust Speed 20 mph    
Visibility 10 miles    
Events      
Averages and records for this station are not official NWS values.
T = Trace of Precipitation, MM = Missing Value Source: NWS Daily Summary

Daily Weather History Graph

Daily Weather History Graph

Search for Another Location

Airport or City:

Astronomy

Apr. 21, 2014 Rise Set
Actual Time 5:56 AM EDT 7:39 PM EDT
Civil Twilight 5:26 AM EDT 8:10 PM EDT
Nautical Twilight 4:49 AM EDT 8:47 PM EDT
Astronomical Twilight 4:09 AM EDT 9:27 PM EDT
Moon 1:10 AM EDT (4/21) 11:17 AM EDT (4/21)
Length of Visible Light 14h 43m
Length of Day
13h 43m
Waning Gibbous, 58% of the Moon is Illuminated
Apr 21
Waning Gibbous
Apr 22
Last Quarter
Apr 29
New
May 6
First Quarter
May 14
Full

Hourly Weather History & Observations

Time (EDT) Temp. Windchill Dew Point Humidity Pressure Visibility Wind Dir Wind Speed Gust Speed Precip Events Conditions
12:53 AM 37.0 °F 31.6 °F 24.1 °F 59% 30.25 in 10.0 mi NE 6.9 mph - N/A   Clear
1:53 AM 37.0 °F - 25.0 °F 62% 30.23 in 10.0 mi Calm Calm - N/A   Clear
2:53 AM 37.9 °F 35.5 °F 27.0 °F 65% 30.20 in 10.0 mi South 3.5 mph - N/A   Partly Cloudy
3:53 AM 36.0 °F 33.3 °F 27.0 °F 70% 30.19 in 10.0 mi South 3.5 mph - N/A   Clear
4:53 AM 39.9 °F - 26.1 °F 58% 30.17 in 10.0 mi Calm Calm - N/A   Clear
5:53 AM 34.0 °F - 26.1 °F 73% 30.17 in 10.0 mi Calm Calm - N/A   Clear
6:53 AM 39.9 °F 35.8 °F 27.0 °F 60% 30.16 in 10.0 mi South 5.8 mph - N/A   Mostly Cloudy
7:53 AM 44.1 °F 40.1 °F 26.1 °F 49% 30.16 in 10.0 mi South 6.9 mph - N/A   Overcast
8:53 AM 46.9 °F - 25.0 °F 42% 30.13 in 10.0 mi SSW 8.1 mph - N/A   Partly Cloudy
9:53 AM 54.0 °F - 25.0 °F 33% 30.10 in 10.0 mi South 10.4 mph - N/A   Clear
10:53 AM 57.9 °F - 25.0 °F 28% 30.06 in 10.0 mi Variable 6.9 mph - N/A   Clear
11:53 AM 62.1 °F - 25.0 °F 24% 30.03 in 10.0 mi SSW 8.1 mph - N/A   Clear
12:53 PM 68.0 °F - 26.1 °F 21% 29.97 in 10.0 mi SW 11.5 mph 19.6 mph N/A   Clear
1:53 PM 66.9 °F - 27.0 °F 22% 29.94 in 10.0 mi South 10.4 mph - N/A   Clear
2:53 PM 73.9 °F - 24.1 °F 16% 29.89 in 10.0 mi West 4.6 mph - N/A   Partly Cloudy
3:53 PM 75.0 °F - 24.1 °F 15% 29.85 in 10.0 mi SW 6.9 mph - N/A   Clear
4:53 PM 75.9 °F - 17.1 °F 11% 29.83 in 10.0 mi West 12.7 mph 16.1 mph N/A   Clear
5:53 PM 75.0 °F - 15.1 °F 10% 29.82 in 10.0 mi WSW 10.4 mph - N/A   Clear
6:53 PM 71.1 °F - 16.0 °F 12% 29.81 in 10.0 mi SW 5.8 mph - N/A   Clear
7:53 PM 59.0 °F - 30.0 °F 33% 29.81 in 10.0 mi South 5.8 mph - N/A   Clear
8:53 PM 52.0 °F - 30.0 °F 43% 29.82 in 10.0 mi Calm Calm - N/A   Clear
9:53 PM 48.0 °F - 34.0 °F 58% 29.81 in 10.0 mi SSE 3.5 mph - N/A   Partly Cloudy
10:53 PM 46.9 °F - 30.9 °F 54% 29.80 in 10.0 mi Calm Calm - N/A   Clear
11:53 PM 48.0 °F - 33.1 °F 56% 29.79 in 10.0 mi NE 4.6 mph - N/A   Clear